TimeCDT,TemperatureF,Dew PointF,Humidity,Sea Level PressureIn,VisibilityMPH,Wind Direction,Wind SpeedMPH,Gust SpeedMPH,PrecipitationIn,Events,Conditions,WindDirDegrees,DateUTC
12:15 AM,62.6,53.6,72,29.89,10.0,ENE,5.8,-,N/A,,Overcast,70,2013-09-25 05:15:00
12:35 AM,62.6,53.6,72,29.89,10.0,East,6.9,-,N/A,,Mostly Cloudy,80,2013-09-25 05:35:00
12:55 AM,60.8,53.6,77,29.89,10.0,ENE,6.9,-,N/A,,Partly Cloudy,60,2013-09-25 05:55:00
1:15 AM,60.8,51.8,72,29.90,10.0,East,6.9,-,N/A,,Clear,80,2013-09-25 06:15:00
1:35 AM,59.0,51.8,77,29.90,10.0,East,6.9,-,N/A,,Clear,80,2013-09-25 06:35:00
1:55 AM,59.0,51.8,77,29.89,10.0,ENE,6.9,-,N/A,,Clear,70,2013-09-25 06:55:00
2:35 AM,57.2,51.8,82,29.89,10.0,NE,6.9,-,N/A,,Clear,50,2013-09-25 07:35:00
2:55 AM,59.0,51.8,77,29.89,10.0,ENE,5.8,-,N/A,,Clear,60,2013-09-25 07:55:00
3:15 AM,57.2,51.8,82,29.89,10.0,ENE,5.8,-,N/A,,Clear,70,2013-09-25 08:15:00
3:35 AM,57.2,51.8,82,29.89,10.0,ENE,5.8,-,N/A,,Clear,60,2013-09-25 08:35:00
3:55 AM,57.2,51.8,82,29.89,10.0,ENE,5.8,-,N/A,,Clear,60,2013-09-25 08:55:00
4:35 AM,57.2,50.0,77,29.89,10.0,ENE,6.9,-,N/A,,Clear,60,2013-09-25 09:35:00
4:55 AM,55.4,50.0,82,29.90,10.0,ENE,5.8,-,N/A,,Clear,70,2013-09-25 09:55:00
5:15 AM,55.4,50.0,82,29.90,10.0,ENE,5.8,-,N/A,,Clear,60,2013-09-25 10:15:00
5:35 AM,55.4,50.0,82,29.91,10.0,ENE,4.6,-,N/A,,Clear,60,2013-09-25 10:35:00
5:55 AM,55.4,50.0,82,29.91,10.0,ENE,5.8,-,N/A,,Clear,60,2013-09-25 10:55:00
6:15 AM,53.6,50.0,88,29.91,10.0,ENE,4.6,-,N/A,,Clear,70,2013-09-25 11:15:00
6:35 AM,53.6,50.0,88,29.91,10.0,ENE,5.8,-,N/A,,Clear,60,2013-09-25 11:35:00
6:55 AM,53.6,50.0,88,29.92,8.0,ENE,5.8,-,N/A,,Clear,60,2013-09-25 11:55:00
7:15 AM,53.6,50.0,88,29.92,6.0,NE,4.6,-,N/A,,Clear,50,2013-09-25 12:15:00
7:35 AM,53.6,50.0,88,29.92,6.0,ENE,6.9,-,N/A,,Clear,60,2013-09-25 12:35:00
7:55 AM,53.6,50.0,88,29.93,6.0,ENE,4.6,-,N/A,,Clear,60,2013-09-25 12:55:00
8:15 AM,55.4,50.0,82,29.93,6.0,ENE,5.8,-,N/A,,Haze,70,2013-09-25 13:15:00
8:35 AM,55.4,51.8,88,29.93,-9999.0,ENE,5.8,-,N/A,,Partly Cloudy,60,2013-09-25 13:35:00
8:55 AM,57.2,51.8,82,29.93,8.0,East,9.2,-,N/A,,Partly Cloudy,80,2013-09-25 13:55:00
9:15 AM,59.0,51.8,77,29.94,9.0,East,9.2,-,N/A,,Clear,80,2013-09-25 14:15:00
9:35 AM,59.0,51.8,77,29.94,9.0,East,8.1,-,N/A,,Clear,80,2013-09-25 14:35:00
9:55 AM,60.8,51.8,72,29.94,10.0,ENE,5.8,-,N/A,,Clear,60,2013-09-25 14:55:00
10:15 AM,62.6,53.6,72,29.94,10.0,ESE,6.9,-,N/A,,Clear,120,2013-09-25 15:15:00
10:35 AM,64.4,53.6,68,29.94,10.0,ENE,6.9,-,N/A,,Clear,70,2013-09-25 15:35:00
10:55 AM,66.2,55.4,68,29.94,10.0,East,5.8,-,N/A,,Clear,80,2013-09-25 15:55:00
11:15 AM,68.0,55.4,64,29.95,10.0,Calm,Calm,-,N/A,,Clear,0,2013-09-25 16:15:00
11:35 AM,69.8,55.4,60,29.94,10.0,ENE,5.8,-,N/A,,Clear,70,2013-09-25 16:35:00
11:55 AM,69.8,57.2,64,29.93,10.0,ENE,8.1,-,N/A,,Clear,70,2013-09-25 16:55:00
12:15 PM,71.6,57.2,60,29.93,10.0,East,8.1,-,N/A,,Clear,90,2013-09-25 17:15:00
12:35 PM,73.4,57.2,57,29.92,10.0,ESE,8.1,13.8,N/A,,Clear,110,2013-09-25 17:35:00
1:15 PM,75.2,57.2,53,29.91,10.0,ESE,5.8,13.8,N/A,,Clear,120,2013-09-25 18:15:00
1:35 PM,75.2,57.2,53,29.90,10.0,SE,8.1,16.1,N/A,,Clear,130,2013-09-25 18:35:00
1:55 PM,77.0,57.2,50,29.89,10.0,ESE,9.2,-,N/A,,Clear,120,2013-09-25 18:55:00
2:15 PM,77.0,57.2,50,29.88,10.0,East,9.2,-,N/A,,Partly Cloudy,100,2013-09-25 19:15:00
2:35 PM,77.0,57.2,50,29.88,10.0,ESE,8.1,-,N/A,,Scattered Clouds,110,2013-09-25 19:35:00
2:55 PM,77.0,57.2,50,29.87,10.0,South,6.9,15.0,N/A,,Scattered Clouds,170,2013-09-25 19:55:00
3:15 PM,77.0,57.2,50,29.87,10.0,SE,8.1,-,N/A,,Scattered Clouds,140,2013-09-25 20:15:00
3:55 PM,77.0,57.2,50,29.86,10.0,South,9.2,-,N/A,,Partly Cloudy,180,2013-09-25 20:55:00
4:15 PM,78.8,57.2,47,29.86,10.0,SE,8.1,16.1,N/A,,Mostly Cloudy,130,2013-09-25 21:15:00
4:35 PM,77.0,57.2,50,29.86,10.0,ESE,5.8,11.5,N/A,,Scattered Clouds,120,2013-09-25 21:35:00
4:55 PM,77.0,57.2,50,29.86,10.0,SSE,8.1,-,N/A,,Partly Cloudy,160,2013-09-25 21:55:00
5:15 PM,78.8,57.2,47,29.86,10.0,SE,9.2,-,N/A,,Scattered Clouds,130,2013-09-25 22:15:00
5:35 PM,77.0,57.2,50,29.86,10.0,SSE,8.1,15.0,N/A,,Partly Cloudy,160,2013-09-25 22:35:00
5:55 PM,77.0,57.2,50,29.86,10.0,SSE,10.4,-,N/A,,Clear,150,2013-09-25 22:55:00
6:15 PM,75.2,59.0,57,29.86,10.0,SSE,5.8,-,N/A,,Clear,150,2013-09-25 23:15:00
6:35 PM,75.2,59.0,57,29.86,10.0,SE,5.8,-,N/A,,Clear,130,2013-09-25 23:35:00
6:55 PM,73.4,59.0,61,29.86,10.0,SE,4.6,-,N/A,,Clear,130,2013-09-25 23:55:00
7:15 PM,71.6,57.2,60,29.85,10.0,SE,5.8,-,N/A,,Clear,130,2013-09-26 00:15:00
7:35 PM,71.6,57.2,60,29.85,10.0,SE,4.6,-,N/A,,Clear,130,2013-09-26 00:35:00
7:55 PM,69.8,57.2,64,29.85,10.0,ESE,3.5,-,N/A,,Clear,120,2013-09-26 00:55:00
8:15 PM,69.8,57.2,64,29.85,10.0,SE,4.6,-,N/A,,Clear,130,2013-09-26 01:15:00
8:35 PM,69.8,57.2,64,29.85,10.0,SE,5.8,-,N/A,,Clear,130,2013-09-26 01:35:00
8:55 PM,68.0,57.2,68,29.86,10.0,ESE,4.6,-,N/A,,Clear,120,2013-09-26 01:55:00
9:15 PM,68.0,57.2,68,29.86,10.0,SE,6.9,-,N/A,,Clear,130,2013-09-26 02:15:00
9:35 PM,68.0,57.2,68,29.86,10.0,SE,5.8,-,N/A,,Clear,130,2013-09-26 02:35:00
9:55 PM,66.2,57.2,73,29.86,10.0,ESE,5.8,-,N/A,,Clear,120,2013-09-26 02:55:00
10:15 PM,66.2,57.2,73,29.87,10.0,SE,6.9,-,N/A,,Clear,130,2013-09-26 03:15:00
10:35 PM,66.2,57.2,73,29.87,10.0,SE,6.9,-,N/A,,Clear,130,2013-09-26 03:35:00
10:55 PM,66.2,57.2,73,29.87,10.0,SE,8.1,-,N/A,,Clear,140,2013-09-26 03:55:00
11:15 PM,66.2,57.2,73,29.87,10.0,SE,6.9,-,N/A,,Clear,130,2013-09-26 04:15:00
11:35 PM,64.4,57.2,77,29.88,10.0,ESE,4.6,-,N/A,,Clear,110,2013-09-26 04:35:00
11:55 PM,62.6,57.2,82,29.89,10.0,ESE,4.6,-,N/A,,Clear,110,2013-09-26 04:55:00